TIME,�g��[���C[MJ/h],����[MJ/h],�Ɩ�[MJ/h],�~�[[MJ/h],�①��[MJ/h],��y���[MJ/h],�Ǝ��q��[MJ/h],���̑�[MJ/h],�����G�l���M�[[MJ/h]
2003/10/1 0:00,0,0,0,0.0739,0.0995,0.3675,0.0207,1.2816,0
2003/10/1 0:15,0,0,0,0.1084,0.3976,0.0791,0.0344,1.4391,0
2003/10/1 0:30,0,0,0,0.4484,0.3197,0.0429,0.0812,1.3634,0
2003/10/1 0:45,0,0,0,0.167,0.0854,0.0435,0.0321,1.2138,0
2003/10/1 1:00,0,0,0,0.309,0.3152,0.0432,0.0321,1.0606,0
2003/10/1 1:15,0,0,0,0.293,0.2536,0.435,0.032,1.0835,0
2003/10/1 1:30,0,0,0,0.1797,0.1094,0.4049,0.0734,1.011,0
2003/10/1 1:45,0,0,0,0.2151,0.3151,0.412,0.0226,0.9847,0
2003/10/1 2:00,0,0,0,0.2193,0.246,0.0773,0.0206,0.4533,0
2003/10/1 2:15,0,0,0,0.2246,0.1133,0.0432,0.0216,0.4854,0
2003/10/1 2:30,0,0,0,0.2174,0.3142,0.0432,0.0697,0.43,0
2003/10/1 2:45,0,0,0,0.2256,0.2964,0.0433,0.0219,0.3305,0
2003/10/1 3:00,0,0,0,0.2222,0.3044,0.0435,0.0228,0.3108,0
2003/10/1 3:15,0,0,0,0.2176,0.3676,0.0436,0.0228,0.3185,0
2003/10/1 3:30,0,0,0,0.2269,0.5813,0.0436,0.0222,0.3198,0
2003/10/1 3:45,0,0,0,0.2288,0.5008,0.0436,0.0655,0.3129,0
2003/10/1 4:00,0,0,0,0.2229,0.5288,0.0436,0.0226,0.3578,0
2003/10/1 4:15,0,0,0,0.222,0.4681,0.0436,0.023,0.36,0
2003/10/1 4:30,0,0,0,0.2272,0.4438,0.0439,0.0232,0.3446,0
2003/10/1 4:45,0,0,0,0.2239,0.4697,0.0438,0.0693,0.362,0
2003/10/1 5:00,0,0,0,0.2203,0.2946,0.0436,0.0235,0.3591,0
2003/10/1 5:15,0,0,0,0.228,0.088,0.0435,0.0238,0.3227,0
2003/10/1 5:30,0,0,0,0.2223,0.3972,0.0432,0.0236,0.3365,0
2003/10/1 5:45,0,0,0,0.23,0.213,0.0435,0.0706,0.3224,0
2003/10/1 6:00,0,0,0,0.2238,0.1879,0.0436,0.024,0.4088,0
2003/10/1 6:15,0,0,0,0.229,0.3881,0.0433,0.0364,0.4596,0
2003/10/1 6:30,0,0,0,0.2196,0.0536,0.0433,0.0357,0.5223,0
2003/10/1 6:45,0,0,0,0.2362,0.3128,0.0436,0.0805,0.4275,0
2003/10/1 7:00,0,0,0,0.2308,0.2942,0.0876,0.0295,0.325,0
2003/10/1 7:15,0,0,0,0.2112,0.0613,0.4113,0.1806,0.8706,0
2003/10/1 7:30,0,0,0,1.8027,0.4081,0.4111,0.7106,1.2084,0
2003/10/1 7:45,0,0,0,0.751,0.1801,0.4202,0.6741,1.151,0
2003/10/1 8:00,0,0,0,0.4477,0.2722,0.4324,0.6702,1.3916,0
2003/10/1 8:15,0,0,0,0.1359,0.3378,0.4213,0.0302,1.1713,0
2003/10/1 8:30,0,0,0,0.1359,0.112,0.3951,0.0366,1.1424,0
2003/10/1 8:45,0,0,0,0.1346,0.3983,0.1675,0.0816,1.0646,0
2003/10/1 9:00,0,0,0,0.1463,0.1388,0.0428,0.0369,1.0803,0
2003/10/1 9:15,0,0,0,0.1391,0.3046,0.0428,0.0383,1.1688,0
2003/10/1 9:30,0,0,0,0.1434,0.2828,0.0426,0.0456,1.1686,0
2003/10/1 9:45,0,0,0,0.1388,0.1498,0.0429,0.0772,1.5011,0
2003/10/1 10:00,0,0,0,0.1404,0.3849,0.0428,0.0392,1.914,0
2003/10/1 10:15,0,0,0,0.1358,0.0495,0.0429,0.1289,1.9056,0
2003/10/1 10:30,0,0,0,0.1368,0.3112,0.0425,0.0834,3.1899,0
2003/10/1 10:45,0,0,0,0.1378,0.2949,0.0422,0.0272,1.8593,0
2003/10/1 11:00,0,0,0,0.1378,0.0598,0.0429,0.0269,1.6121,0
2003/10/1 11:15,0,0,0,0.1329,0.3972,0.0426,0.0264,1.2208,0
2003/10/1 11:30,0,0,0,0.1338,0.1388,0.0435,0.0726,0.9357,0
2003/10/1 11:45,0,0,0,0.1338,0.2948,0.0432,0.0261,2.6199,0
2003/10/1 12:00,0,0,0,0.1309,0.1283,0.052,0.0252,0.8436,0
2003/10/1 12:15,0,0,0,0.1359,0.2693,0.0432,0.0792,0.7563,0
2003/10/1 12:30,0,0,0,0.1313,0.2339,0.0432,0.038,0.4383,0
2003/10/1 12:45,0,0,0,0.1323,0.1279,0.0431,0.0364,0.4077,0
2003/10/1 13:00,0,0,0,0.1306,0.312,0.0433,0.0361,0.4248,0
2003/10/1 13:15,0,0,0,0.1273,0.2249,0.0433,0.0812,0.4853,0
2003/10/1 13:30,0,0,0,0.1341,0.1577,0.0435,0.0356,0.625,0
2003/10/1 13:45,0,0,0,0.1287,0.4028,0.0433,0.0353,0.4193,0
2003/10/1 14:00,0,0,0,0.1284,0.1289,0.1053,0.0348,0.4159,0
2003/10/1 14:15,0,0,0,0.1325,0.2592,0.4352,0.0785,0.4245,0
2003/10/1 14:30,0,0,0,0.1251,0.3044,0.4251,0.0344,0.4071,0
2003/10/1 14:45,0,0,0,0.1308,0.0986,0.4127,0.0346,0.4058,0
2003/10/1 15:00,0,0,0,0.1316,0.3413,0.4483,0.034,0.741,0
2003/10/1 15:15,0,0,0,0.1319,0.3239,0.2542,0.0739,1.4581,0
2003/10/1 15:30,0,0,0,0.1261,0.1282,0.0569,0.0336,1.3992,0
2003/10/1 15:45,0,0,0,0.1309,0.4005,0.0433,0.0336,1.3205,0
2003/10/1 16:00,0,0,0,0.1312,0.2884,0.0431,0.033,1.4992,0
2003/10/1 16:15,0,0,0,0.1329,0.1318,0.0431,0.0778,1.5614,0
2003/10/1 16:30,0,0,0,0.131,0.4012,0.0426,0.0331,1.913,0
2003/10/1 16:45,0,0,0,0.1369,0.1372,0.0425,0.0336,1.6394,0
2003/10/1 17:00,0,0,0,0.1382,0.3118,0.0423,0.0331,1.778,0
2003/10/1 17:15,0,0,0,0.1496,0.3849,0.0433,0.0775,1.5674,0
2003/10/1 17:30,0,0,0,4.2192,0.1565,0.0433,0.0331,1.6128,0
2003/10/1 17:45,0,0,0,4.3216,0.2308,0.0431,0.0336,1.5101,0
2003/10/1 18:00,0,0,0,4.3718,0.3469,0.0431,0.0333,1.9686,0
2003/10/1 18:15,0,0,0,0.6532,0.1004,0.0429,0.0333,1.2197,0
2003/10/1 18:30,0,0,0,0.1647,0.3947,0.0431,0.075,1.3645,0
2003/10/1 18:45,0,0,0,0.1542,0.177,0.0429,0.0334,1.3411,0
2003/10/1 19:00,0,0,0,0.1548,0.3046,0.0554,0.0334,1.8952,0
2003/10/1 19:15,0,0,0,2.3911,0.2838,0.0477,0.0336,2.0883,0
2003/10/1 19:30,0,0,0,2.9521,0.2163,0.0428,0.0785,1.7591,0
2003/10/1 19:45,0,0,0,0.156,0.3792,0.0429,0.0333,1.3049,0
2003/10/1 20:00,0,0,0,0.1577,0.1188,0.0431,0.0331,1.2806,0
2003/10/1 20:15,0,0,0,0.1585,0.4444,0.0431,0.0312,1.3262,0
2003/10/1 20:30,0,0,0,0.1833,0.0884,0.0433,0.0755,1.6108,0
2003/10/1 20:45,0,0,0,0.1908,0.4143,0.0773,0.0334,1.4806,0
2003/10/1 21:00,0,0,0,0.1922,0.1547,0.3796,0.0333,1.6027,0
2003/10/1 21:15,0,0,0,0.1966,0.3446,0.2159,0.0331,2.0154,0
2003/10/1 21:30,0,0,0,0.195,0.2346,0.0419,0.0765,2.2487,0
2003/10/1 21:45,0,0,0,0.1907,0.2386,0.0429,0.0331,0.8849,0
2003/10/1 22:00,0,0,0,0.2026,0.3456,0.0433,0.033,0.8461,0
2003/10/1 22:15,0,0,0,0.1912,0.0904,0.0431,0.0327,1.061,0
2003/10/1 22:30,0,0,0,0.1948,0.3131,0.0433,0.0327,1.2279,0
2003/10/1 22:45,0,0,0,0.1943,0.141,0.0426,0.0662,1.3216,0
2003/10/1 23:00,0,0,0,0.2043,0.3145,0.252,0.0204,1.2941,0
2003/10/1 23:15,0,0,0,0.1911,0.3555,0.4054,0.0212,1.3703,0
2003/10/1 23:30,0,0,0,0.1993,0.138,0.4098,0.0213,1.1632,0
2003/10/1 23:45,0,0,0,0.2017,0.3974,0.4123,0.0668,1.5604,0
2003/10/2 0:00,0,0,0,0.1925,0.0847,0.4074,0.0291,1.6224,0
2003/10/2 0:15,0,0,0,0.201,0.2987,0.4205,0.0284,1.5636,0
2003/10/2 0:30,0,0,0,0.1943,0.3015,0.4451,0.0333,1.8615,0
2003/10/2 0:45,0,0,0,0.1989,0.0703,0.0973,0.0819,0.557,0
2003/10/2 1:00,0,0,0,0.1938,0.4281,0.0428,0.0331,0.3203,0
2003/10/2 1:15,0,0,0,0.1957,0.2796,0.0432,0.0327,0.3092,0
2003/10/2 1:30,0,0,0,0.276,0.2023,0.0432,0.0328,0.2403,0
2003/10/2 1:45,0,0,0,0.4103,0.3803,0.0429,0.0229,0.1107,0
2003/10/2 2:00,0,0,0,0.2753,0.0652,0.0435,0.0647,0.2493,0
2003/10/2 2:15,0,0,0,0.1708,0.3136,0.0432,0.0216,0.3272,0
2003/10/2 2:30,0,0,0,0.2174,0.2956,0.0432,0.0219,0.5249,0
2003/10/2 2:45,0,0,0,0.2269,0.3034,0.0432,0.0219,0.4915,0
2003/10/2 3:00,0,0,0,0.2294,0.3354,0.0432,0.0691,0.4595,0
2003/10/2 3:15,0,0,0,0.2251,0.5767,0.0435,0.0219,0.5952,0
2003/10/2 3:30,0,0,0,0.2285,0.4936,0.0433,0.0223,0.5088,0
2003/10/2 3:45,0,0,0,0.2295,0.5229,0.0435,0.0223,0.521,0
2003/10/2 4:00,0,0,0,0.2222,0.4618,0.0435,0.0694,0.4703,0
2003/10/2 4:15,0,0,0,0.2321,0.4432,0.0435,0.0226,0.4843,0
2003/10/2 4:30,0,0,0,0.2267,0.4689,0.0436,0.0226,0.4641,0
2003/10/2 4:45,0,0,0,0.23,0.1068,0.0435,0.0229,0.5122,0
2003/10/2 5:00,0,0,0,0.2304,0.2582,0.0433,0.0675,0.4964,0
2003/10/2 5:15,0,0,0,0.2305,0.3835,0.0432,0.0226,0.3718,0
2003/10/2 5:30,0,0,0,0.229,0.0675,0.0431,0.0228,0.3371,0
2003/10/2 5:45,0,0,0,0.2324,0.3737,0.0432,0.0228,0.4028,0
2003/10/2 6:00,0,0,0,0.2288,0.1822,0.0431,0.0681,0.3646,0
2003/10/2 6:15,0,0,0,0.2294,0.2172,0.0432,0.0357,0.3449,0
2003/10/2 6:30,0,0,0,0.2328,0.3015,0.102,0.0297,0.5066,0
2003/10/2 6:45,0,0,0,1.2698,0.0541,0.4071,0.0353,1.0251,0
2003/10/2 7:00,0,0,0,4.1296,0.322,0.4363,0.0811,1.1605,0
2003/10/2 7:15,0,0,0,1.3097,0.2877,0.4157,0.1564,1.0918,0
2003/10/2 7:30,0,0,0,0.8502,0.0796,0.4175,0.4671,1.7389,0
2003/10/2 7:45,0,0,0,0.7949,0.4107,0.4195,0.8289,1.1511,0
2003/10/2 8:00,0,0,0,0.1614,0.3552,0.4261,0.6407,1.2007,0
2003/10/2 8:15,0,0,0,0.1295,0.0639,0.4319,0.2684,1.2404,0
2003/10/2 8:30,0,0,0,0.1352,0.4067,0.3804,0.0841,1.2999,0
2003/10/2 8:45,0,0,0,0.1364,0.1971,0.1607,0.0373,1.5978,0
2003/10/2 9:00,0,0,0,0.1372,0.2519,0.0429,0.0374,1.7438,0
2003/10/2 9:15,0,0,0,0.1398,0.3018,0.0433,0.0379,1.7316,0
2003/10/2 9:30,0,0,0,0.1368,0.1485,0.0432,0.0887,1.8072,0
2003/10/2 9:45,0,0,0,0.1392,0.3974,0.0432,0.0382,1.8726,0
2003/10/2 10:00,0,0,0,0.1397,0.0976,0.0433,0.0264,1.7297,0
2003/10/2 10:15,0,0,0,0.1375,0.2837,0.0432,0.0268,2.8251,0
2003/10/2 10:30,0,0,0,0.1332,0.2432,0.0429,0.076,2.2759,0
2003/10/2 10:45,0,0,0,0.1358,0.1418,0.0429,0.0261,2.1891,0
2003/10/2 11:00,0,0,0,0.1333,0.3987,0.0429,0.1017,1.958,0
2003/10/2 11:15,0,0,0,0.1303,0.1136,0.0428,0.1624,1.9185,0
2003/10/2 11:30,0,0,0,0.1333,0.3421,0.0429,0.0719,1.4924,0
2003/10/2 11:45,0,0,0,0.129,0.2308,0.0425,0.0245,1.4875,0
2003/10/2 12:00,0,0,0,0.1319,0.2236,0.0513,0.0248,1.4613,0
2003/10/2 12:15,0,0,0,0.8692,0.3984,0.0423,0.0367,1.2676,0
2003/10/2 12:30,0,0,0,0.1289,0.2025,0.0425,0.0841,1.038,0
2003/10/2 12:45,0,0,0,0.1283,0.1855,0.29,0.0348,1.1439,0
2003/10/2 13:00,0,0,0,0.1381,0.3129,0.3756,0.0346,1.445,0
2003/10/2 13:15,0,0,0,0.1276,0.3593,0.1787,0.0338,1.6573,0
2003/10/2 13:30,0,0,0,0.1332,0.1323,0.0425,0.034,1.6832,0
2003/10/2 13:45,0,0,0,0.1315,0.3289,0.0433,0.0799,1.622,0
2003/10/2 14:00,0,0,0,0.1264,0.3869,0.0429,0.0334,1.6586,0
2003/10/2 14:15,0,0,0,0.129,0.1048,0.0431,0.0333,1.524,0
2003/10/2 14:30,0,0,0,0.1296,0.3904,0.0431,0.0494,1.4725,0
2003/10/2 14:45,0,0,0,0.13,0.3446,0.0431,0.1358,1.4031,0
2003/10/2 15:00,0,0,0,0.128,0.1596,0.0429,0.0321,1.5186,0
2003/10/2 15:15,0,0,0,0.1283,0.4455,0.0428,0.0318,1.9282,0
2003/10/2 15:30,0,0,0,0.1273,0.13,0.0428,0.0314,2.0616,0
2003/10/2 15:45,0,0,0,0.1284,0.3819,0.0428,0.0315,2.0485,0
2003/10/2 16:00,0,0,0,0.1264,0.3315,0.0428,0.0805,2.1619,0
2003/10/2 16:15,0,0,0,0.1326,0.1709,0.0429,0.031,2.2856,0
2003/10/2 16:30,0,0,0,0.1295,0.4409,0.0425,0.0288,2.3066,0
2003/10/2 16:45,0,0,0,0.1277,0.0685,0.0425,0.0321,2.352,0
2003/10/2 17:00,0,0,0,0.1332,0.4379,0.0422,0.0336,2.5485,0
2003/10/2 17:15,0,0,0,0.1299,0.4147,0.0428,0.0804,2.839,0
2003/10/2 17:30,0,0,0,0.1297,0.0413,0.0429,0.0334,2.8164,0
2003/10/2 17:45,0,0,0,0.1293,0.3816,0.0428,0.0828,2.6824,0
2003/10/2 18:00,0,0,0,0.13,0.4288,0.0425,0.4922,2.573,0
2003/10/2 18:15,0,0,0,0.1332,0.0357,0.0422,0.0852,2.4127,0
2003/10/2 18:30,0,0,0,0.129,0.4329,0.0423,0.0369,2.3128,0
2003/10/2 18:45,0,0,0,0.4981,0.2187,0.0423,0.0337,2.1732,0
2003/10/2 19:00,0,0,0,4.5543,0.2582,0.055,0.0233,2.3236,0
2003/10/2 19:15,0,0,0,0.1297,0.3897,0.0472,0.0215,2.0112,0
2003/10/2 19:30,0,0,0,0.1341,0.054,0.0425,0.0703,1.9826,0
2003/10/2 19:45,0,0,0,0.1254,0.4654,0.0428,0.1974,2.4081,0
2003/10/2 20:00,0,0,0,0.1296,0.433,0.0426,0.2241,1.9709,0
2003/10/2 20:15,0,0,0,0.13,0.0487,0.0432,0.033,2.1269,0
2003/10/2 20:30,0,0,0,0.1309,0.4131,0.0431,0.0779,2.0786,0
2003/10/2 20:45,0,0,0,0.1261,0.3855,0.0432,0.0327,2.1352,0
2003/10/2 21:00,0,0,0,0.1326,0.0541,0.0432,0.0327,2.1946,0
2003/10/2 21:15,0,0,0,0.1296,0.4104,0.0431,0.0324,2.4847,0
2003/10/2 21:30,0,0,0,0.1279,0.2716,0.0429,0.0776,2.4003,0
2003/10/2 21:45,0,0,0,0.1309,0.2016,0.0426,0.0337,1.9089,0
2003/10/2 22:00,0,0,0,0.131,0.4401,0.0428,0.0301,2.0465,0
2003/10/2 22:15,0,0,0,0.1328,0.0546,0.0429,0.0323,1.8084,0
2003/10/2 22:30,0,0,0,0.127,0.4081,0.0429,0.0334,1.7713,0
2003/10/2 22:45,0,0,0,0.1322,0.2098,0.0428,0.0691,1.68,0
2003/10/2 23:00,0,0,0,0.1297,0.2451,0.0425,0.021,1.4882,0
2003/10/2 23:15,0,0,0,0.1329,0.3879,0.0426,0.0215,1.4475,0
2003/10/2 23:30,0,0,0,0.1303,0.0527,0.2919,0.0217,1.902,0
2003/10/2 23:45,0,0,0,0.1319,0.4599,0.4042,0.0693,1.6458,0
2003/10/3 0:00,0,0,0,4.6758,0.201,0.4167,0.0222,1.6173,0
2003/10/3 0:15,0,0,0,0.5469,0.3023,0.2987,0.0347,1.3522,0
2003/10/3 0:30,0,0,0,0.0377,0.365,0.0432,0.033,0.6538,0
2003/10/3 0:45,0,0,0,0.0749,0.1352,0.0426,0.0324,0.3038,0
2003/10/3 1:00,0,0,0,0.1067,0.445,0.0429,0.0776,0.2835,0
2003/10/3 1:15,0,0,0,0.1243,0.0888,0.0431,0.0321,0.2772,0
2003/10/3 1:30,0,0,0,0.1346,0.3753,0.0433,0.0318,0.2923,0
2003/10/3 1:45,0,0,0,0.1322,0.2798,0.0433,0.0226,0.2808,0
2003/10/3 2:00,0,0,0,0.1345,0.1408,0.0429,0.0642,0.2673,0
2003/10/3 2:15,0,0,0,0.1349,0.3109,0.0431,0.021,0.2788,0
2003/10/3 2:30,0,0,0,0.1341,0.2948,0.0433,0.0209,0.2871,0
2003/10/3 2:45,0,0,0,0.1342,0.2995,0.0435,0.0212,0.2835,0
2003/10/3 3:00,0,0,0,0.1349,0.4097,0.0436,0.069,0.2907,0
2003/10/3 3:15,0,0,0,0.1345,0.5776,0.0432,0.021,0.2825,0
2003/10/3 3:30,0,0,0,0.1359,0.489,0.0435,0.0216,0.2805,0
2003/10/3 3:45,0,0,0,0.1287,0.5121,0.0432,0.0217,0.2782,0
2003/10/3 4:00,0,0,0,0.1318,0.4517,0.0433,0.0216,0.2845,0
2003/10/3 4:15,0,0,0,0.1385,0.4563,0.0433,0.0688,0.2769,0
2003/10/3 4:30,0,0,0,0.1332,0.4666,0.0435,0.0215,0.2971,0
2003/10/3 4:45,0,0,0,0.1358,0.069,0.0433,0.022,0.2824,0
2003/10/3 5:00,0,0,0,0.1329,0.2998,0.0433,0.0222,0.2729,0
2003/10/3 5:15,0,0,0,0.1348,0.3815,0.0432,0.0681,0.2789,0
2003/10/3 5:30,0,0,0,0.1355,0.0556,0.0429,0.022,0.2768,0
2003/10/3 5:45,0,0,0,0.5471,0.3681,0.0431,0.0223,0.2282,0
2003/10/3 6:00,0,0,0,0.9827,0.1947,0.0431,0.0222,0.3796,0
2003/10/3 6:15,0,0,0,0.8385,0.2058,0.0431,0.0822,0.375,0
2003/10/3 6:30,0,0,0,0.3452,0.3069,0.0435,0.0338,0.2709,0
2003/10/3 6:45,0,0,0,0.2835,0.1469,0.0431,0.0334,0.2762,0
2003/10/3 7:00,0,0,0,2.2681,0.2156,0.3606,0.0334,0.8129,0
2003/10/3 7:15,0,0,0,2.6372,0.3116,0.4176,0.0295,1.0274,0
2003/10/3 7:30,0,0,0,0.8345,0.1495,0.4245,0.0812,0.9707,0
2003/10/3 7:45,0,0,0,0.8819,0.2749,0.4221,0.034,0.9598,0
2003/10/3 8:00,0,0,0,0.3708,0.4008,0.4104,0.0743,1.3484,0
2003/10/3 8:15,0,0,0,0.1902,0.1741,0.4216,0.0324,1.2799,0
2003/10/3 8:30,0,0,0,0.2051,0.2231,0.3754,0.0343,1.2084,0
2003/10/3 8:45,0,0,0,0.1898,0.3105,0.1364,0.0344,0.806,0
2003/10/3 9:00,0,0,0,0.2003,0.1417,0.0433,0.0801,0.5085,0
2003/10/3 9:15,0,0,0,0.1953,0.2841,0.0438,0.0239,0.4153,0
2003/10/3 9:30,0,0,0,0.1996,0.393,0.0435,0.0223,0.378,0
2003/10/3 9:45,0,0,0,0.1963,0.2896,0.0435,0.0228,0.3823,0
2003/10/3 10:00,0,0,0,0.2,0.1362,0.0433,0.068,0.3696,0
2003/10/3 10:15,0,0,0,0.1967,0.3185,0.0436,0.0228,0.3816,0
2003/10/3 10:30,0,0,0,0.1881,0.2892,0.0435,0.0229,0.3198,0
2003/10/3 10:45,0,0,0,0.1966,0.109,0.0433,0.0235,0.2449,0
2003/10/3 11:00,0,0,0,0.1888,0.4045,0.0435,0.0681,0.2655,0
2003/10/3 11:15,0,0,0,0.2025,0.1511,0.0435,0.0232,0.2511,0
2003/10/3 11:30,0,0,0,0.1892,0.3087,0.0435,0.0354,0.248,0
2003/10/3 11:45,0,0,0,0.1967,0.2559,0.0433,0.0344,0.2507,0
2003/10/3 12:00,0,0,0,0.1971,0.1644,0.052,0.0806,0.248,0
2003/10/3 12:15,0,0,0,0.1842,0.3083,0.0429,0.0333,0.2465,0
2003/10/3 12:30,0,0,0,0.1964,0.0973,0.0431,0.0333,0.2409,0
2003/10/3 12:45,0,0,0,0.1878,0.2745,0.0429,0.0327,0.2589,0
2003/10/3 13:00,0,0,0,0.1896,0.3024,0.0432,0.0328,0.2369,0
2003/10/3 13:15,0,0,0,0.1957,0.0831,0.0432,0.0793,0.2533,0
2003/10/3 13:30,0,0,0,0.2756,0.2874,0.0432,0.0325,0.1636,0
2003/10/3 13:45,0,0,0,0.3682,0.3033,0.0433,0.0228,0.089,0
2003/10/3 14:00,0,0,0,0.1585,0.0783,0.0432,0.0194,0.2712,0
2003/10/3 14:15,0,0,0,0.2164,0.3648,0.0433,0.0756,0.4503,0
2003/10/3 14:30,0,0,0,0.2123,0.2246,0.0432,0.033,0.4524,0
2003/10/3 14:45,0,0,0,0.22,0.2341,0.0432,0.0324,0.4522,0
2003/10/3 15:00,0,0,0,0.2206,0.3429,0.0431,0.0314,0.4681,0
2003/10/3 15:15,0,0,0,0.2136,0.1116,0.0432,0.0318,0.4558,0
2003/10/3 15:30,0,0,0,0.2235,0.4002,0.0432,0.0755,0.5557,0
2003/10/3 15:45,0,0,0,0.3807,0.0874,0.0429,0.0312,0.864,0
2003/10/3 16:00,0,0,0,0.2143,0.4143,0.0432,0.0315,1.3013,0
2003/10/3 16:15,0,0,0,0.2179,0.1833,0.0428,0.0274,1.0364,0
2003/10/3 16:30,0,0,0,0.221,0.321,0.0431,0.0324,1.0447,0
2003/10/3 16:45,0,0,0,0.2242,0.2868,0.0428,0.0778,0.7066,0
2003/10/3 17:00,0,0,0,0.2215,0.2154,0.0426,0.0311,0.6777,0
2003/10/3 17:15,0,0,0,0.2212,0.436,0.0423,0.0298,1.0086,0
2003/10/3 17:30,0,0,0,0.2215,0.1056,0.0432,0.0289,1.082,0
2003/10/3 17:45,0,0,0,0.2258,0.3299,0.0432,0.0786,1.3353,0
2003/10/3 18:00,0,0,0,0.2161,0.2655,0.0429,0.0314,1.3189,0
2003/10/3 18:15,0,0,0,0.2248,0.2364,0.0431,0.031,1.2698,0
2003/10/3 18:30,0,0,0,0.2199,0.3776,0.0576,0.0312,1.2125,0
2003/10/3 18:45,0,0,0,1.6268,0.1264,0.4402,0.031,1.0905,0
2003/10/3 19:00,0,0,0,0.289,0.4458,0.4457,0.0717,1.0788,0
2003/10/3 19:15,0,0,0,0.2251,0.0569,0.4415,0.0183,1.0689,0
2003/10/3 19:30,0,0,0,0.1954,0.447,0.4424,0.0196,1.0866,0
2003/10/3 19:45,0,0,0,1.7428,0.105,0.375,0.0323,1.1848,0
2003/10/3 20:00,0,0,0,2.2451,0.3613,0.0426,0.0323,1.2036,0
2003/10/3 20:15,0,0,0,0.5252,0.3933,0.0428,0.0763,1.4813,0
2003/10/3 20:30,0,0,0,0.1287,0.0757,0.0431,0.0314,1.4341,0
2003/10/3 20:45,0,0,0,0.1349,0.4126,0.0431,0.0278,1.1883,0
2003/10/3 21:00,0,0,0,0.1261,0.2684,0.0432,0.0289,1.2577,0
2003/10/3 21:15,0,0,0,0.1351,0.2341,0.0432,0.0289,1.4174,0
2003/10/3 21:30,0,0,0,0.128,0.372,0.0426,0.0811,1.3838,0
2003/10/3 21:45,0,0,0,0.1328,0.1308,0.0429,0.0321,1.7823,0
2003/10/3 22:00,0,0,0,0.1348,0.4431,0.0433,0.0324,1.3435,0
2003/10/3 22:15,0,0,0,0.1292,0.0547,0.0432,0.0323,1.692,0
2003/10/3 22:30,0,0,0,0.1297,0.4552,0.0436,0.0755,1.156,0
2003/10/3 22:45,0,0,0,0.1351,0.1475,0.042,0.0229,1.1853,0
2003/10/3 23:00,0,0,0,0.1315,0.32,0.1207,0.1693,1.4311,0
2003/10/3 23:15,0,0,0,0.1308,0.2899,0.4464,0.6997,1.4314,0
2003/10/3 23:30,0,0,0,0.1336,0.1741,0.4154,0.5462,1.3262,0
2003/10/3 23:45,0,0,0,0.1269,0.4435,0.4372,0.6801,1.4423,0
2003/10/4 0:00,0,0,0,0.1348,0.0619,0.4104,0.0215,1.0754,0
2003/10/4 0:15,0,0,0,0.1319,0.4654,0.4972,0.0344,1.2102,0
2003/10/4 0:30,0,0,0,0.1316,0.221,0.5181,0.0336,1.175,0
2003/10/4 0:45,0,0,0,0.1267,0.2624,0.4068,0.0799,1.0535,0
2003/10/4 1:00,0,0,0,0.1367,0.3453,0.0429,0.0337,0.5538,0
2003/10/4 1:15,0,0,0,0.1279,0.1067,0.0429,0.0334,0.2802,0
2003/10/4 1:30,0,0,0,0.1344,0.4033,0.0432,0.0331,0.2818,0
2003/10/4 1:45,0,0,0,0.1299,0.1364,0.0428,0.0697,0.2775,0
2003/10/4 2:00,0,0,0,0.131,0.2568,0.0431,0.0207,0.2919,0
2003/10/4 2:15,0,0,0,0.1342,0.3027,0.0435,0.0217,0.2976,0
2003/10/4 2:30,0,0,0,0.1292,0.2984,0.0429,0.0217,0.283,0
2003/10/4 2:45,0,0,0,0.1326,0.2301,0.0432,0.069,0.2919,0
2003/10/4 3:00,0,0,0,0.1367,0.5747,0.0431,0.0217,0.2893,0
2003/10/4 3:15,0,0,0,0.1289,0.576,0.0432,0.0222,0.2873,0
2003/10/4 3:30,0,0,0,0.1367,0.4797,0.0433,0.0222,0.2953,0
2003/10/4 3:45,0,0,0,0.1306,0.4909,0.0433,0.0225,0.2948,0
2003/10/4 4:00,0,0,0,0.1319,0.4375,0.0432,0.0677,0.2858,0
2003/10/4 4:15,0,0,0,0.1325,0.4713,0.0433,0.0223,0.294,0
2003/10/4 4:30,0,0,0,0.1328,0.2674,0.0432,0.0222,0.2929,0
2003/10/4 4:45,0,0,0,0.1331,0.1522,0.0432,0.0226,0.2919,0
2003/10/4 5:00,0,0,0,0.1312,0.3941,0.0433,0.0711,0.2879,0
2003/10/4 5:15,0,0,0,0.1323,0.2222,0.0431,0.0223,0.2933,0
2003/10/4 5:30,0,0,0,0.1385,0.1591,0.0429,0.023,0.2946,0
2003/10/4 5:45,0,0,0,0.1329,0.396,0.0433,0.0229,0.2923,0
2003/10/4 6:00,0,0,0,0.1303,0.0654,0.0433,0.0708,0.2832,0
2003/10/4 6:15,0,0,0,0.1356,0.3885,0.0436,0.0361,0.2997,0
2003/10/4 6:30,0,0,0,0.1329,0.1669,0.0432,0.0344,0.2932,0
2003/10/4 6:45,0,0,0,0.1346,0.2827,0.0435,0.0341,0.2975,0
2003/10/4 7:00,0,0,0,0.1336,0.3203,0.0559,0.0341,0.2922,0
2003/10/4 7:15,0,0,0,0.1345,0.1312,0.0482,0.0827,0.3087,0
2003/10/4 7:30,0,0,0,0.1329,0.3921,0.0433,0.0343,0.2893,0
2003/10/4 7:45,0,0,0,0.1342,0.0547,0.0435,0.0337,0.2896,0
2003/10/4 8:00,0,0,0,0.1354,0.3152,0.0438,0.0344,0.2876,0
2003/10/4 8:15,0,0,0,0.1329,0.1855,0.0432,0.0812,0.2932,0
2003/10/4 8:30,0,0,0,0.1359,0.1783,0.0428,0.0343,0.2765,0
2003/10/4 8:45,0,0,0,0.1316,0.2966,0.0425,0.0343,0.2847,0
2003/10/4 9:00,0,0,0,0.1354,0.0649,0.0422,0.0291,0.3224,0
2003/10/4 9:15,0,0,0,0.1323,0.3144,0.0432,0.0353,0.6742,0
2003/10/4 9:30,0,0,0,0.1361,0.1691,0.0436,0.0835,0.7338,0
2003/10/4 9:45,0,0,0,2.8446,0.2449,0.0432,0.035,0.8469,0
2003/10/4 10:00,0,0,0,2.4553,0.2843,0.0435,0.0245,0.7865,0
2003/10/4 10:15,0,0,0,1.532,0.1718,0.0433,0.0232,2.3818,0
2003/10/4 10:30,0,0,0,0.158,0.3524,0.1839,0.0772,0.9966,0
2003/10/4 10:45,0,0,0,0.131,0.1057,0.1832,0.03,0.9046,0
2003/10/4 11:00,0,0,0,0.132,0.4033,0.18,0.0671,1.0267,0
2003/10/4 11:15,0,0,0,0.1341,0.0956,0.1283,0.0557,1.0869,0
2003/10/4 11:30,0,0,0,0.1361,0.3594,0.0433,0.0245,1.3887,0
2003/10/4 11:45,0,0,0,0.1283,0.1701,0.0431,0.0251,1.0483,0
2003/10/4 12:00,0,0,0,0.1387,0.2298,0.0518,0.0723,0.7155,0
2003/10/4 12:15,0,0,0,0.1303,0.2804,0.0428,0.0369,0.792,0
2003/10/4 12:30,0,0,0,0.1336,0.0906,0.0431,0.0361,0.68,0
2003/10/4 12:45,0,0,0,0.1348,0.401,0.0431,0.0354,0.8065,0
2003/10/4 13:00,0,0,0,0.1306,0.0714,0.0431,0.0719,0.8662,0
2003/10/4 13:15,0,0,0,0.1293,0.3908,0.0432,0.0235,0.5476,0
2003/10/4 13:30,0,0,0,0.1292,0.1793,0.0433,0.0236,0.4045,0
2003/10/4 13:45,0,0,0,0.1308,0.2733,0.0432,0.0235,0.4009,0
2003/10/4 14:00,0,0,0,0.1308,0.2772,0.0433,0.0723,0.4199,0
2003/10/4 14:15,0,0,0,0.1336,0.1464,0.0433,0.0236,0.4278,0
2003/10/4 14:30,0,0,0,0.132,0.3096,0.0431,0.0363,0.7534,0
2003/10/4 14:45,0,0,0,0.1358,0.1017,0.0433,0.0354,1.0417,0
2003/10/4 15:00,0,0,0,0.1322,0.268,0.0435,0.0828,1.0526,0
2003/10/4 15:15,0,0,0,0.1323,0.2474,0.0433,0.0351,1.3352,0
2003/10/4 15:30,0,0,0,0.1364,0.1374,0.0433,0.0346,0.8739,0
2003/10/4 15:45,0,0,0,0.1331,0.3987,0.0431,0.0333,0.7737,0
2003/10/4 16:00,0,0,0,0.1336,0.0668,0.1535,0.0799,0.858,0
2003/10/4 16:15,0,0,0,0.1328,0.3954,0.4166,0.0354,0.9734,0
2003/10/4 16:30,0,0,0,0.1299,0.2081,0.426,0.0739,1.007,0
2003/10/4 16:45,0,0,0,0.1326,0.2467,0.4205,0.0724,1.2118,0
2003/10/4 17:00,0,0,0,0.1322,0.3362,0.0608,0.0762,0.6604,0
2003/10/4 17:15,0,0,0,0.1335,0.1195,0.0432,0.0344,0.617,0
2003/10/4 17:30,0,0,0,0.1319,0.3987,0.0435,0.0344,0.6294,0
2003/10/4 17:45,0,0,0,0.1306,0.0657,0.0433,0.0372,0.7917,0
2003/10/4 18:00,0,0,0,0.4703,0.4123,0.0433,0.0793,1.2943,0
2003/10/4 18:15,0,0,0,0.7862,0.3839,0.0429,0.0242,1.6065,0
2003/10/4 18:30,0,0,0,4.7877,0.0534,0.0431,0.0226,1.8164,0
2003/10/4 18:45,0,0,0,3.921,0.4175,0.3488,0.0235,2.1843,0
2003/10/4 19:00,0,0,0,0.69,0.4032,0.4241,0.0773,1.6861,0
2003/10/4 19:15,0,0,0,0.1747,0.1312,0.1269,0.0232,1.6959,0
2003/10/4 19:30,0,0,0,0.1606,0.3318,0.1482,0.0229,1.6548,0
2003/10/4 19:45,0,0,0,0.1647,0.4009,0.4977,0.035,1.6841,0
2003/10/4 20:00,0,0,0,0.1629,0.1117,0.5095,0.0359,1.4895,0
2003/10/4 20:15,0,0,0,0.161,0.3482,0.2624,0.0893,1.19,0
2003/10/4 20:30,0,0,0,0.1545,0.3989,0.1103,0.0302,1.7713,0
2003/10/4 20:45,0,0,0,0.158,0.1071,0.1106,0.034,1.1108,0
2003/10/4 21:00,0,0,0,0.1529,0.3514,0.105,0.0338,0.7032,0
2003/10/4 21:15,0,0,0,0.1588,0.3927,0.0667,0.0789,1.0691,0
2003/10/4 21:30,0,0,0,0.1788,0.1014,0.1094,0.0347,1.3218,0
2003/10/4 21:45,0,0,0,0.1836,0.3266,0.1099,0.0344,1.1992,0
2003/10/4 22:00,0,0,0,0.1927,0.4023,0.3691,0.034,1.2125,0
2003/10/4 22:15,0,0,0,0.1968,0.126,0.436,0.7062,1.5996,0
2003/10/4 22:30,0,0,0,0.1977,0.3335,0.4316,0.7184,0.9949,0
2003/10/4 22:45,0,0,0,0.1907,0.3478,0.4343,0.6379,1.068,0
2003/10/4 23:00,0,0,0,0.1941,0.1064,0.4229,0.0261,1.1778,0
2003/10/4 23:15,0,0,0,0.1964,0.4068,0.4421,0.022,1.1739,0
2003/10/4 23:30,0,0,0,0.1979,0.1932,0.4532,0.07,1.2496,0
2003/10/4 23:45,0,0,0,0.1973,0.2618,0.502,0.0225,1.1458,0
2003/10/5 0:00,0,0,0,0.1941,0.3828,0.4833,0.022,0.9759,0
2003/10/5 0:15,0,0,0,0.2038,0.0651,0.4804,0.0351,1.2084,0
2003/10/5 0:30,0,0,0,0.1987,0.3208,0.4657,0.1119,1.4448,0
2003/10/5 0:45,0,0,0,0.1918,0.3139,0.3895,0.033,0.7969,0
2003/10/5 1:00,0,0,0,0.2392,0.0573,0.1112,0.0346,0.4342,0
2003/10/5 1:15,0,0,0,0.4054,0.4157,0.1113,0.0346,0.6414,0
2003/10/5 1:30,0,0,0,0.4117,0.3607,0.0991,0.0841,0.4929,0
2003/10/5 1:45,0,0,0,0.3927,0.0363,0.0884,0.024,0.1408,0
2003/10/5 2:00,0,0,0,0.1616,0.3256,0.0888,0.0226,0.2887,0
2003/10/5 2:15,0,0,0,0.1498,0.3046,0.0886,0.0228,0.2995,0
2003/10/5 2:30,0,0,0,0.2038,0.3023,0.0886,0.0236,0.2634,0
2003/10/5 2:45,0,0,0,0.2156,0.2896,0.0887,0.0714,0.2704,0
2003/10/5 3:00,0,0,0,0.2216,0.5784,0.0884,0.0236,0.2572,0
2003/10/5 3:15,0,0,0,0.2357,0.5041,0.0883,0.024,0.2663,0
2003/10/5 3:30,0,0,0,0.2239,0.5374,0.0886,0.0239,0.2578,0
2003/10/5 3:45,0,0,0,0.2321,0.4782,0.0884,0.0716,0.2573,0
2003/10/5 4:00,0,0,0,0.228,0.4464,0.0888,0.0243,0.2566,0
2003/10/5 4:15,0,0,0,0.2396,0.4755,0.0886,0.0242,0.2717,0
2003/10/5 4:30,0,0,0,0.2288,0.1924,0.0886,0.0245,0.2549,0
2003/10/5 4:45,0,0,0,0.2349,0.1767,0.0888,0.0755,0.2661,0